STARLINK-36880, 67976

Orbit data source: Space-Track

STARLINK-36880, 67976 is a payload satellite owned by SpaceX/Seattle (US) in SSO that was launched on Wed, 25 Feb 2026 UTC via an FALCON 9 launch vehicle from the Air Force Western Test Range (AFWTR). Payload-class satellites include a variety of spacecraft equipped with specific instruments for various scientific and technological missions. These include communications satellites like Starlink; space stations such as the ISS; scientific satellites like the Hubble; Earth observation satellites from companies like Planet Labs, Umbra, and HawkEye 360; GPS; miniature CubeSats for education and research; and military/defense satellites.

Loading next visibility...
Identifier
67976, 2026-038R
Orbit
SSO
Country
Flag of USUS
Related business
Manufacturer
SpaceX/Seattle
Mission
Operational Commercial Communications
Bus & Motor
STARLINK V2MO, Unknown motor
Mass
575 kg wet, ~530 kg dry
Launch date (UTC)
2026-02-25 (4 months ago)
Launch vehicle
FALCON 9
Launch site
Air Force Western Test Range (AFWTR)
Object type
Payload
Rocket body
Debris
Shape & HBR
Box + 2 Pan, 17.7 m
Radar Cross Section
36.964 m², Large (>1 m²)

Expand to show TLE details & history
Last TLE update: 21 hours ago

TLE from 21 hours ago
0 STARLINK-36880
1 67976U 26038R   26170.96014682  .00016210  00000-0  50318-3 0  9996
2 67976  97.2844 180.6404 0001653  96.1176 264.0255 15.33456338 18913
Epoch: 2026-06-19T23:02Z
TLE epoch observation values (Epoch: 2026-06-19T23:02:36.685Z)
Latitude
-0.00002°
Longitude
-73.19408°
Altitude
468.739 km
Speed
7.632 km/s
True Right ascension
12h 02m 33s
True Declination
0° 00' 00"
Sunlit
Object was in daylight at epoch
Visualization orbit readout
Latitude
Unknown
Longitude
Unknown
Altitude
Unknown
Speed
Unknown
Apparent Right ascension
Unknown
Apparent Declination
Unknown
Sunlit
N/A
Visualization observer readout
Local Sidereal Time
07:12:26
Azimuth
Unknown
Elevation
Unknown
Doppler factor
Unknown
Orbital elements
Apogee altitude
463.583 km
Perigee altitude
461.321 km
Semi-major axis
6,840.589 km
Eccentricity
0.00017
Inclination
97.2844°
RAAN
180.6404°
Arg. of periapsis
96.1176°
True anomaly
264.00666°
Mean anomaly
264.0255°
Eccentric anomaly
264.01608°
Mean motion
3.83621 °/min
Orbital period
93.84 mins
BSTAR
0.00050318
Loading maneuver chart data...
Computing Atmospheric mass density...
Loading historical data...
Loading historical data...
Loading historical data...
Loading historical data...
Loading historical data...
Loading historical data...
Loading historical data...

Documentation

Showing up to 5 results
|